Location: Castifao
(42.5040°N, 9.1124°E)
Time: 08:16:29
(UTC+00:00)

Envisat - Visible Passes

Search period start: 05 April 2020 00:00
Search period end: 15 April 2020 00:00
Orbit: 764 x 766 km, 98.1° (Epoch: 04 April)

Date Brightness Start Highest point End Pass type
(mag) Time Alt. Az. Time Alt. Az. Time Alt. Az.
05 Apr 6.3 18:34:50 10° WSW 18:37:04 13° W 18:39:19 10° WNW visible
07 Apr 6.6 04:26:55 10° ENE 04:28:14 11° E 04:29:33 10° ESE visible
08 Apr 6.0 18:22:27 10° SW 18:25:38 16° W 18:28:47 10° NW visible
13 Apr 6.4 18:38:15 10° WSW 18:39:58 12° W 18:41:41 10° WNW visible
